Find Starlink 34123

NORAD ID: 63891 Int'l Des: 2025-095 Owner: SPXS Country: US Constellation: starlink operational
LEOCIRCULAR

Aktuelle Ansicht

3D-Globus wird geladen...

Über Starlink 34123

Beschreibung wird geladen...

Nächste Überflüge

Passes for default location (London). Set your location on the main map for personalized predictions.

Höhenverlauf

Loading altitude history...

Zweizeiliger Elementsatz

1 63891U 25095B 26151.14128549 .00034065 00000-0 12412-2 0 9997
2 63891 43.0000 70.9319 0001233 268.3133 91.7577 15.27594178 60393
Epoch: 31. Mai 2026 • Age: 15 hours

Aktueller Status

Höhe 493.6 km
Geschwindigkeit 7.62 km/s
Subsatellitenpunkt -38.61°S, 137.72°E
Startdatum 10. Mai 2025
Alter 1 years
Typ internet

Technische Details

Klassifizierung Payload
Masse 575.00 kg
Trockenmasse 530.00 kg
Gesamtmasse 575.00 kg
Länge 0.30 m
Durchmesser 4.10 m
Spannweite 29.00 m
Form Box + pan
Hersteller SPXS
Bus-Typ Starlink V2MO
Phasenstatus In Orbit
Besitzer/Staat SPXS/US

Most Searched